Simultaneous Nadir Overpasses (SNOs) Predictions

Prediction of SNOs between GOES-17 and NOAA-19 Satellite Orbit:

Table of predicted SNOs for the next 14.0 days since TLE Epoch: 2/21/2025
Index Date Time (GOES-17) GOES-17 Lat,Lon NOAA-19 Lat,Lon Distance(km) Time Diff (sec)
1 02/22/2025 16:41:27 0.00,-104.41 0.14,-105.10 78.89 80
2 02/23/2025 16:26:13 0.00,-104.40 -0.54,-102.05 268.72 80
3 02/26/2025 04:45:01 -0.00,-104.38 -0.48,-106.53 245.49 80
4 02/27/2025 04:35:07 -0.00,-104.38 0.21,-103.48 102.43 80
5 02/28/2025 04:22:34 -0.01,-104.38 0.90,-100.43 450.41 80
6 03/01/2025 16:53:55 0.00,-104.40 0.85,-107.96 407.11 80
7 03/02/2025 16:41:23 0.01,-104.40 0.10,-104.92 59.27 80
8 03/03/2025 16:26:09 0.01,-104.40 -0.60,-101.87 288.69 80
9 03/06/2025 04:44:55 -0.00,-104.37 -0.44,-106.35 225.53 80
10 03/07/2025 04:35:02 -0.00,-104.36 0.26,-103.30 122.22 80
